Time,TemperatureF,DewpointF,PressureIn,WindDirection,WindDirectionDegrees,WindSpeedMPH,WindSpeedGustMPH,Humidity,HourlyPrecipIn,Conditions,Clouds,dailyrainin,SoftwareType,DateUTC
2013-07-09 00:00:00,70.0,67.9,30.00,SE,142,0.0,0.0,93,0.00,,,0.00,WeatherCatV1.15B25,2013-07-09 04:00:00,
2013-07-09 00:01:00,70.0,67.9,30.00,SE,142,0.0,0.0,93,0.00,,,0.00,WeatherCatV1.15B25,2013-07-09 04:01:00,
2013-07-09 00:03:00,70.0,67.9,30.00,SE,141,0.0,0.0,93,0.00,,,0.00,WeatherCatV1.15B25,2013-07-09 04:03:00,
2013-07-09 00:05:00,70.0,67.9,30.01,SE,142,0.0,0.0,93,0.00,,,0.00,WeatherCatV1.15B25,2013-07-09 04:05:00,
2013-07-09 00:06:00,70.0,67.9,30.01,SE,142,1.0,1.0,93,0.00,,,0.00,WeatherCatV1.15B25,2013-07-09 04:06:00,
2013-07-09 00:11:00,69.9,67.8,30.00,SE,141,0.0,0.0,93,0.18,,,0.02,WeatherCatV1.15B25,2013-07-09 04:11:00,
2013-07-09 00:16:00,69.9,67.8,30.00,SE,142,0.0,0.0,93,0.11,,,0.02,WeatherCatV1.15B25,2013-07-09 04:16:00,
2013-07-09 00:21:00,70.0,67.9,30.00,SE,142,0.0,0.0,93,0.10,,,0.03,WeatherCatV1.15B25,2013-07-09 04:21:00,
2013-07-09 00:26:00,70.0,67.9,30.00,SE,142,0.0,0.0,93,0.07,,,0.03,WeatherCatV1.15B25,2013-07-09 04:26:00,
2013-07-09 00:31:00,70.0,67.9,30.01,SE,142,0.0,0.0,93,0.04,,,0.03,WeatherCatV1.15B25,2013-07-09 04:31:00,
2013-07-09 00:36:00,70.1,68.0,30.01,SE,141,1.0,1.0,93,0.00,,,0.03,WeatherCatV1.15B25,2013-07-09 04:36:00,
2013-07-09 00:41:00,70.1,68.0,30.01,SE,144,0.0,1.0,93,0.00,,,0.03,WeatherCatV1.15B25,2013-07-09 04:41:00,
2013-07-09 00:46:00,70.1,68.0,30.01,SE,144,0.0,0.0,93,0.00,,,0.03,WeatherCatV1.15B25,2013-07-09 04:46:00,
2013-07-09 00:51:00,70.1,68.0,30.01,SE,144,0.0,0.0,93,0.00,,,0.03,WeatherCatV1.15B25,2013-07-09 04:51:00,
2013-07-09 00:56:00,70.2,68.1,30.00,SE,141,1.0,2.0,93,0.00,,,0.04,WeatherCatV1.15B25,2013-07-09 04:56:00,
2013-07-09 01:01:00,70.2,68.1,30.00,NNW,347,0.0,4.0,93,0.00,,,0.04,WeatherCatV1.15B25,2013-07-09 05:01:00,
2013-07-09 01:06:00,70.2,68.1,30.00,NNW,347,0.0,0.0,93,0.04,,,0.04,WeatherCatV1.15B25,2013-07-09 05:06:00,
2013-07-09 01:11:00,70.2,68.1,30.00,NW,306,0.0,2.0,93,0.20,,,0.06,WeatherCatV1.15B25,2013-07-09 05:11:00,
2013-07-09 01:16:00,70.2,68.1,30.00,NW,306,0.0,0.0,93,0.07,,,0.06,WeatherCatV1.15B25,2013-07-09 05:16:00,
2013-07-09 01:21:00,70.1,68.0,30.00,NW,306,0.0,0.0,93,0.05,,,0.06,WeatherCatV1.15B25,2013-07-09 05:21:00,
2013-07-09 01:26:00,70.1,68.0,30.00,NW,306,0.0,0.0,93,0.00,,,0.06,WeatherCatV1.15B25,2013-07-09 05:26:00,
2013-07-09 01:31:00,70.2,68.1,30.01,NW,306,0.0,0.0,93,0.00,,,0.07,WeatherCatV1.15B25,2013-07-09 05:31:00,
2013-07-09 01:36:00,70.2,68.1,30.01,NW,306,0.0,0.0,93,0.00,,,0.07,WeatherCatV1.15B25,2013-07-09 05:36:00,
2013-07-09 01:41:00,70.2,68.1,30.01,NW,306,0.0,0.0,93,0.00,,,0.07,WeatherCatV1.15B25,2013-07-09 05:41:00,
2013-07-09 01:46:00,70.2,68.1,30.00,NW,306,0.0,0.0,93,0.05,,,0.08,WeatherCatV1.15B25,2013-07-09 05:46:00,
2013-07-09 01:51:00,70.2,68.1,30.00,NW,306,0.0,0.0,93,0.05,,,0.08,WeatherCatV1.15B25,2013-07-09 05:51:00,
2013-07-09 01:56:00,70.1,68.0,30.00,NW,306,0.0,0.0,93,0.04,,,0.08,WeatherCatV1.15B25,2013-07-09 05:56:00,
2013-07-09 02:02:00,70.2,68.1,30.00,NW,306,0.0,0.0,93,0.00,,,0.08,WeatherCatV1.15B25,2013-07-09 06:02:00,
2013-07-09 02:07:00,70.2,68.1,30.00,NW,306,0.0,0.0,93,0.00,,,0.08,WeatherCatV1.15B25,2013-07-09 06:07:00,
2013-07-09 02:12:00,70.3,68.2,30.00,NW,306,0.0,0.0,93,0.00,,,0.09,WeatherCatV1.15B25,2013-07-09 06:12:00,
2013-07-09 02:17:00,70.3,68.2,30.00,NW,306,0.0,1.0,93,0.00,,,0.09,WeatherCatV1.15B25,2013-07-09 06:17:00,
2013-07-09 02:22:00,70.3,68.2,29.99,NW,306,0.0,0.0,93,0.00,,,0.09,WeatherCatV1.15B25,2013-07-09 06:22:00,
2013-07-09 02:27:00,70.4,68.3,29.99,NW,306,0.0,0.0,93,0.00,,,0.09,WeatherCatV1.15B25,2013-07-09 06:27:00,
2013-07-09 02:32:00,70.4,68.3,29.99,NW,306,0.0,0.0,93,0.00,,,0.09,WeatherCatV1.15B25,2013-07-09 06:32:00,
2013-07-09 02:37:00,70.4,68.3,29.98,NW,306,0.0,0.0,93,0.00,,,0.09,WeatherCatV1.15B25,2013-07-09 06:37:00,
2013-07-09 02:42:00,70.5,68.4,29.98,West,261,0.0,0.0,93,0.00,,,0.09,WeatherCatV1.15B25,2013-07-09 06:42:00,
2013-07-09 02:47:00,70.5,68.4,29.98,West,260,0.0,0.0,93,0.00,,,0.09,WeatherCatV1.15B25,2013-07-09 06:47:00,
2013-07-09 02:52:00,70.5,68.4,29.98,West,261,0.0,0.0,93,0.00,,,0.09,WeatherCatV1.15B25,2013-07-09 06:52:00,
2013-07-09 02:57:00,70.4,68.3,29.98,West,261,0.0,0.0,93,0.00,,,0.09,WeatherCatV1.15B25,2013-07-09 06:57:00,
2013-07-09 03:02:00,70.4,68.3,29.97,West,261,0.0,0.0,93,0.00,,,0.09,WeatherCatV1.15B25,2013-07-09 07:02:00,
2013-07-09 03:07:00,70.4,68.3,29.97,West,261,0.0,0.0,93,0.00,,,0.09,WeatherCatV1.15B25,2013-07-09 07:07:00,
2013-07-09 03:12:00,70.4,68.3,29.97,West,261,0.0,0.0,93,0.00,,,0.09,WeatherCatV1.15B25,2013-07-09 07:12:00,
2013-07-09 03:17:00,70.3,68.2,29.97,West,261,0.0,0.0,93,0.00,,,0.09,WeatherCatV1.15B25,2013-07-09 07:17:00,
2013-07-09 03:22:00,70.3,68.2,29.97,West,261,0.0,0.0,93,0.00,,,0.09,WeatherCatV1.15B25,2013-07-09 07:22:00,
2013-07-09 03:27:00,70.2,68.1,29.97,West,261,0.0,0.0,93,0.00,,,0.09,WeatherCatV1.15B25,2013-07-09 07:27:00,
2013-07-09 03:32:00,70.2,68.1,29.97,West,261,0.0,0.0,93,0.00,,,0.09,WeatherCatV1.15B25,2013-07-09 07:32:00,
2013-07-09 03:37:00,70.2,68.1,29.97,West,261,0.0,1.0,93,0.00,,,0.09,WeatherCatV1.15B25,2013-07-09 07:37:00,
2013-07-09 03:42:00,70.1,68.0,29.97,ENE,78,1.0,2.0,93,0.00,,,0.09,WeatherCatV1.15B25,2013-07-09 07:42:00,
2013-07-09 03:47:00,70.1,68.0,29.97,NW,315,2.0,3.0,93,0.00,,,0.09,WeatherCatV1.15B25,2013-07-09 07:47:00,
2013-07-09 03:53:00,70.0,67.9,29.97,NW,315,0.0,0.0,93,0.00,,,0.09,WeatherCatV1.15B25,2013-07-09 07:53:00,
2013-07-09 03:58:00,70.0,67.9,29.97,NW,315,0.0,0.0,93,0.00,,,0.09,WeatherCatV1.15B25,2013-07-09 07:58:00,
2013-07-09 04:03:00,70.0,67.9,29.97,NW,315,0.0,0.0,93,0.00,,,0.09,WeatherCatV1.15B25,2013-07-09 08:03:00,
2013-07-09 04:08:00,70.0,67.9,29.97,NW,315,0.0,0.0,93,0.00,,,0.09,WeatherCatV1.15B25,2013-07-09 08:08:00,
2013-07-09 04:13:00,69.9,67.8,29.97,NW,315,0.0,0.0,93,0.00,,,0.09,WeatherCatV1.15B25,2013-07-09 08:13:00,
2013-07-09 04:18:00,69.9,67.8,29.97,NW,315,0.0,0.0,93,0.00,,,0.09,WeatherCatV1.15B25,2013-07-09 08:18:00,
2013-07-09 04:24:00,69.9,67.8,29.97,NW,315,0.0,0.0,93,0.00,,,0.09,WeatherCatV1.15B25,2013-07-09 08:24:00,
2013-07-09 04:29:00,69.9,67.8,29.97,NW,315,0.0,0.0,93,0.00,,,0.09,WeatherCatV1.15B25,2013-07-09 08:29:00,
2013-07-09 04:34:00,69.9,67.8,29.97,WNW,300,0.0,0.0,93,0.00,,,0.09,WeatherCatV1.15B25,2013-07-09 08:34:00,
2013-07-09 04:39:00,69.9,67.8,29.97,WNW,300,0.0,0.0,93,0.00,,,0.09,WeatherCatV1.15B25,2013-07-09 08:39:00,
2013-07-09 04:44:00,70.0,67.9,29.97,WNW,300,0.0,0.0,93,0.00,,,0.09,WeatherCatV1.15B25,2013-07-09 08:44:00,
2013-07-09 04:49:00,69.9,67.8,29.96,WNW,300,0.0,0.0,93,0.00,,,0.09,WeatherCatV1.15B25,2013-07-09 08:49:00,
2013-07-09 04:54:00,70.0,67.9,29.96,WNW,300,0.0,0.0,93,0.00,,,0.09,WeatherCatV1.15B25,2013-07-09 08:54:00,
2013-07-09 04:59:00,69.9,67.8,29.96,East,85,0.0,1.0,93,0.00,,,0.09,WeatherCatV1.15B25,2013-07-09 08:59:00,
2013-07-09 05:04:00,69.9,67.8,29.96,East,84,0.0,0.0,93,0.00,,,0.09,WeatherCatV1.15B25,2013-07-09 09:04:00,
2013-07-09 05:09:00,69.9,67.8,29.96,East,85,0.0,0.0,93,0.00,,,0.09,WeatherCatV1.15B25,2013-07-09 09:09:00,
2013-07-09 05:14:00,69.8,67.7,29.96,NW,309,0.0,4.0,93,0.00,,,0.09,WeatherCatV1.15B25,2013-07-09 09:14:00,
2013-07-09 05:19:00,69.8,67.7,29.96,NW,309,0.0,0.0,93,0.00,,,0.09,WeatherCatV1.15B25,2013-07-09 09:19:00,
2013-07-09 05:24:00,69.8,67.7,29.96,NW,309,0.0,0.0,93,0.00,,,0.09,WeatherCatV1.15B25,2013-07-09 09:24:00,
2013-07-09 05:29:00,69.8,67.7,29.96,NW,309,0.0,0.0,93,0.00,,,0.09,WeatherCatV1.15B25,2013-07-09 09:29:00,
2013-07-09 05:34:00,69.8,67.7,29.96,NW,307,0.0,0.0,93,0.00,,,0.09,WeatherCatV1.15B25,2013-07-09 09:34:00,
2013-07-09 05:40:00,69.9,67.8,29.96,NW,307,0.0,0.0,93,0.00,,,0.09,WeatherCatV1.15B25,2013-07-09 09:40:00,
2013-07-09 05:45:00,70.0,67.9,29.96,NW,307,0.0,0.0,93,0.00,,,0.09,WeatherCatV1.15B25,2013-07-09 09:45:00,
2013-07-09 05:50:00,69.9,67.8,29.96,SSE,149,0.0,1.0,93,0.00,,,0.09,WeatherCatV1.15B25,2013-07-09 09:50:00,
2013-07-09 05:55:00,70.0,67.9,29.96,SSE,149,0.0,0.0,93,0.00,,,0.09,WeatherCatV1.15B25,2013-07-09 09:55:00,
2013-07-09 06:00:00,70.0,67.9,29.96,SSE,149,0.0,0.0,93,0.00,,,0.09,WeatherCatV1.15B25,2013-07-09 10:00:00,
2013-07-09 06:05:00,70.0,68.2,29.96,South,186,0.0,1.0,94,0.00,,,0.09,WeatherCatV1.15B25,2013-07-09 10:05:00,
2013-07-09 06:10:00,70.1,68.3,29.96,South,186,0.0,0.0,94,0.00,,,0.09,WeatherCatV1.15B25,2013-07-09 10:10:00,
2013-07-09 06:15:00,70.1,68.3,29.96,South,186,0.0,0.0,94,0.00,,,0.09,WeatherCatV1.15B25,2013-07-09 10:15:00,
2013-07-09 06:20:00,70.1,68.3,29.96,ESE,111,0.0,0.0,94,0.00,,,0.09,WeatherCatV1.15B25,2013-07-09 10:20:00,
2013-07-09 06:25:00,70.2,68.4,29.96,ESE,111,0.0,0.0,94,0.00,,,0.09,WeatherCatV1.15B25,2013-07-09 10:25:00,
2013-07-09 06:30:00,70.2,68.4,29.96,ESE,111,0.0,0.0,94,0.00,,,0.09,WeatherCatV1.15B25,2013-07-09 10:30:00,
2013-07-09 06:35:00,70.2,68.4,29.96,ESE,110,0.0,0.0,94,0.00,,,0.09,WeatherCatV1.15B25,2013-07-09 10:35:00,
2013-07-09 06:40:00,70.3,68.5,29.97,ESE,110,0.0,0.0,94,0.00,,,0.09,WeatherCatV1.15B25,2013-07-09 10:40:00,
2013-07-09 06:45:00,70.2,68.4,29.96,ESE,110,0.0,0.0,94,0.00,,,0.09,WeatherCatV1.15B25,2013-07-09 10:45:00,
2013-07-09 06:50:00,70.3,68.5,29.97,ESE,110,0.0,1.0,94,0.00,,,0.09,WeatherCatV1.15B25,2013-07-09 10:50:00,
2013-07-09 06:55:00,70.3,68.2,29.97,ESE,110,1.0,1.0,93,0.00,,,0.09,WeatherCatV1.15B25,2013-07-09 10:55:00,
2013-07-09 07:00:00,70.3,68.5,29.97,ESE,110,0.0,0.0,94,0.00,,,0.09,WeatherCatV1.15B25,2013-07-09 11:00:00,
2013-07-09 07:05:00,70.3,68.2,29.97,ESE,110,0.0,0.0,93,0.00,,,0.09,WeatherCatV1.15B25,2013-07-09 11:05:00,
2013-07-09 07:10:00,70.3,68.2,29.97,ESE,110,0.0,0.0,93,0.00,,,0.09,WeatherCatV1.15B25,2013-07-09 11:10:00,
2013-07-09 07:15:00,70.3,68.2,29.97,ESE,110,0.0,0.0,93,0.00,,,0.09,WeatherCatV1.15B25,2013-07-09 11:15:00,
2013-07-09 07:20:00,70.3,68.2,29.97,ESE,110,0.0,0.0,93,0.00,,,0.09,WeatherCatV1.15B25,2013-07-09 11:20:00,
2013-07-09 07:25:00,70.4,68.3,29.97,SSW,209,0.0,0.0,93,0.00,,,0.09,WeatherCatV1.15B25,2013-07-09 11:25:00,
2013-07-09 07:30:00,70.4,68.3,29.97,SSW,209,0.0,2.0,93,0.00,,,0.09,WeatherCatV1.15B25,2013-07-09 11:30:00,
2013-07-09 07:35:00,70.4,68.3,29.97,NW,309,0.0,0.0,93,0.00,,,0.09,WeatherCatV1.15B25,2013-07-09 11:35:00,
2013-07-09 07:40:00,70.5,68.4,29.97,NW,311,0.0,0.0,93,0.00,,,0.09,WeatherCatV1.15B25,2013-07-09 11:40:00,
2013-07-09 07:45:00,70.5,68.4,29.97,North,11,0.0,2.0,93,0.00,,,0.09,WeatherCatV1.15B25,2013-07-09 11:45:00,
2013-07-09 07:50:00,70.5,68.4,29.97,ESE,111,0.0,0.0,93,0.00,,,0.09,WeatherCatV1.15B25,2013-07-09 11:50:00,
2013-07-09 07:55:00,70.5,68.4,29.97,NNE,21,0.0,1.0,93,0.00,,,0.09,WeatherCatV1.15B25,2013-07-09 11:55:00,
2013-07-09 08:00:00,70.6,68.5,29.97,NNE,22,0.0,0.0,93,0.00,,,0.09,WeatherCatV1.15B25,2013-07-09 12:00:00,
2013-07-09 08:05:00,70.7,68.9,29.97,NNE,22,0.0,0.0,94,0.00,,,0.09,WeatherCatV1.15B25,2013-07-09 12:05:00,
2013-07-09 08:10:00,70.9,69.1,29.97,NNE,22,0.0,0.0,94,0.00,,,0.09,WeatherCatV1.15B25,2013-07-09 12:10:00,
2013-07-09 08:15:00,71.1,69.0,29.97,NNE,21,0.0,0.0,93,0.00,,,0.09,WeatherCatV1.15B25,2013-07-09 12:15:00,
2013-07-09 08:20:00,71.3,69.2,29.97,NNE,22,0.0,0.0,93,0.00,,,0.09,WeatherCatV1.15B25,2013-07-09 12:20:00,
2013-07-09 08:25:00,71.7,69.9,29.96,NNE,22,0.0,0.0,94,0.00,,,0.09,WeatherCatV1.15B25,2013-07-09 12:25:00,
2013-07-09 08:30:00,71.9,69.8,29.96,NNE,21,0.0,0.0,93,0.00,,,0.09,WeatherCatV1.15B25,2013-07-09 12:30:00,
2013-07-09 08:35:00,72.0,69.9,29.96,NNE,22,0.0,0.0,93,0.00,,,0.09,WeatherCatV1.15B25,2013-07-09 12:35:00,
2013-07-09 08:41:00,72.2,70.4,29.96,NNE,22,0.0,0.0,94,0.00,,,0.09,WeatherCatV1.15B25,2013-07-09 12:41:00,
2013-07-09 08:46:00,72.3,70.5,29.96,NNE,22,0.0,0.0,94,0.00,,,0.09,WeatherCatV1.15B25,2013-07-09 12:46:00,
2013-07-09 08:51:00,72.3,70.2,29.96,NNE,22,0.0,0.0,93,0.00,,,0.09,WeatherCatV1.15B25,2013-07-09 12:51:00,
2013-07-09 08:56:00,72.4,70.3,29.96,NNE,22,0.0,0.0,93,0.00,,,0.09,WeatherCatV1.15B25,2013-07-09 12:56:00,
2013-07-09 09:02:00,72.6,70.5,29.96,NNE,22,0.0,0.0,93,0.00,,,0.09,WeatherCatV1.15B25,2013-07-09 13:02:00,
2013-07-09 09:07:00,72.8,70.7,29.96,NNE,22,0.0,0.0,93,0.00,,,0.09,WeatherCatV1.15B25,2013-07-09 13:07:00,
2013-07-09 09:12:00,72.8,70.7,29.96,East,85,0.0,0.0,93,0.00,,,0.09,WeatherCatV1.15B25,2013-07-09 13:12:00,
2013-07-09 09:17:00,73.0,70.8,29.96,East,84,0.0,0.0,93,0.00,,,0.09,WeatherCatV1.15B25,2013-07-09 13:17:00,
2013-07-09 09:22:00,73.2,71.0,29.96,East,84,0.0,0.0,93,0.00,,,0.09,WeatherCatV1.15B25,2013-07-09 13:22:00,
2013-07-09 09:27:00,73.4,71.2,29.96,East,85,0.0,0.0,93,0.00,,,0.09,WeatherCatV1.15B25,2013-07-09 13:27:00,
2013-07-09 09:32:00,73.5,71.3,29.96,East,85,0.0,0.0,93,0.00,,,0.09,WeatherCatV1.15B25,2013-07-09 13:32:00,
2013-07-09 09:37:00,73.6,71.4,29.95,East,85,0.0,0.0,93,0.00,,,0.09,WeatherCatV1.15B25,2013-07-09 13:37:00,
2013-07-09 09:42:00,73.6,71.4,29.95,East,85,0.0,0.0,93,0.00,,,0.09,WeatherCatV1.15B25,2013-07-09 13:42:00,
2013-07-09 09:47:00,73.8,71.6,29.95,East,85,0.0,0.0,93,0.00,,,0.09,WeatherCatV1.15B25,2013-07-09 13:47:00,
2013-07-09 09:53:00,73.8,71.6,29.96,East,85,0.0,0.0,93,0.00,,,0.09,WeatherCatV1.15B25,2013-07-09 13:53:00,
2013-07-09 09:58:00,73.9,71.7,29.96,East,84,0.0,0.0,93,0.00,,,0.09,WeatherCatV1.15B25,2013-07-09 13:58:00,
2013-07-09 10:03:00,74.1,71.9,29.96,East,85,0.0,0.0,93,0.00,,,0.09,WeatherCatV1.15B25,2013-07-09 14:03:00,
2013-07-09 10:08:00,74.3,72.1,29.96,East,84,0.0,0.0,93,0.00,,,0.09,WeatherCatV1.15B25,2013-07-09 14:08:00,
2013-07-09 10:13:00,74.4,71.9,29.95,SSW,199,0.0,0.0,92,0.00,,,0.09,WeatherCatV1.15B25,2013-07-09 14:13:00,
2013-07-09 10:18:00,74.7,72.2,29.96,SSE,164,0.0,0.0,92,0.00,,,0.09,WeatherCatV1.15B25,2013-07-09 14:18:00,
2013-07-09 10:23:00,74.8,72.3,29.95,WNW,298,0.0,0.0,92,0.00,,,0.09,WeatherCatV1.15B25,2013-07-09 14:23:00,
2013-07-09 10:28:00,74.8,72.3,29.96,WNW,302,0.0,0.0,92,0.00,,,0.09,WeatherCatV1.15B25,2013-07-09 14:28:00,
2013-07-09 10:33:00,75.0,72.5,29.96,WNW,302,0.0,0.0,92,0.00,,,0.09,WeatherCatV1.15B25,2013-07-09 14:33:00,
2013-07-09 10:39:00,75.3,72.8,29.96,WNW,302,0.0,0.0,92,0.00,,,0.09,WeatherCatV1.15B25,2013-07-09 14:39:00,
2013-07-09 10:44:00,75.3,72.8,29.96,South,172,0.0,0.0,92,0.00,,,0.09,WeatherCatV1.15B25,2013-07-09 14:44:00,
2013-07-09 10:49:00,75.3,72.8,29.96,SSE,159,0.0,0.0,92,0.00,,,0.09,WeatherCatV1.15B25,2013-07-09 14:49:00,
2013-07-09 10:54:00,75.4,72.6,29.96,SSE,159,2.0,2.0,91,0.00,,,0.09,WeatherCatV1.15B25,2013-07-09 14:54:00,
2013-07-09 10:59:00,75.4,72.6,29.96,SSE,159,0.0,0.0,91,0.00,,,0.09,WeatherCatV1.15B25,2013-07-09 14:59:00,
2013-07-09 11:04:00,75.4,72.6,29.96,SSE,159,0.0,0.0,91,0.00,,,0.09,WeatherCatV1.15B25,2013-07-09 15:04:00,
2013-07-09 11:09:00,75.4,72.6,29.96,SSE,159,0.0,0.0,91,0.00,,,0.09,WeatherCatV1.15B25,2013-07-09 15:09:00,
2013-07-09 11:14:00,75.4,72.6,29.96,SSE,159,0.0,0.0,91,0.00,,,0.09,WeatherCatV1.15B25,2013-07-09 15:14:00,
2013-07-09 11:19:00,75.2,72.1,29.96,SSE,159,0.0,0.0,90,0.00,,,0.09,WeatherCatV1.15B25,2013-07-09 15:19:00,
2013-07-09 11:24:00,75.1,72.0,29.96,SSE,159,0.0,0.0,90,0.00,,,0.09,WeatherCatV1.15B25,2013-07-09 15:24:00,
2013-07-09 11:29:00,75.2,72.1,29.96,SSE,159,0.0,0.0,90,0.00,,,0.09,WeatherCatV1.15B25,2013-07-09 15:29:00,
2013-07-09 11:34:00,75.3,72.5,29.96,SSE,159,0.0,0.0,91,0.00,,,0.10,WeatherCatV1.15B25,2013-07-09 15:34:00,
2013-07-09 11:39:00,75.3,72.2,29.96,SSE,159,0.0,1.0,90,0.00,,,0.10,WeatherCatV1.15B25,2013-07-09 15:39:00,
2013-07-09 11:45:00,75.3,72.2,29.96,SSE,159,0.0,0.0,90,0.00,,,0.10,WeatherCatV1.15B25,2013-07-09 15:45:00,
2013-07-09 11:50:00,75.4,72.6,29.96,SSE,159,0.0,0.0,91,0.00,,,0.10,WeatherCatV1.15B25,2013-07-09 15:50:00,
2013-07-09 11:55:00,75.5,72.7,29.95,SSE,159,0.0,0.0,91,0.00,,,0.10,WeatherCatV1.15B25,2013-07-09 15:55:00,
2013-07-09 12:00:00,75.8,73.0,29.95,SSE,159,0.0,0.0,91,0.00,,,0.10,WeatherCatV1.15B25,2013-07-09 16:00:00,
2013-07-09 12:05:00,75.8,72.6,29.95,SSE,159,0.0,0.0,90,0.00,,,0.10,WeatherCatV1.15B25,2013-07-09 16:05:00,
2013-07-09 12:10:00,75.8,72.6,29.95,SSE,159,0.0,0.0,90,0.00,,,0.10,WeatherCatV1.15B25,2013-07-09 16:10:00,
2013-07-09 12:15:00,75.7,72.5,29.95,SSE,159,0.0,0.0,90,0.00,,,0.10,WeatherCatV1.15B25,2013-07-09 16:15:00,
2013-07-09 12:20:00,75.8,72.6,29.95,SSE,159,0.0,0.0,90,0.00,,,0.10,WeatherCatV1.15B25,2013-07-09 16:20:00,
2013-07-09 12:25:00,76.0,73.2,29.95,SSE,159,0.0,0.0,91,0.00,,,0.10,WeatherCatV1.15B25,2013-07-09 16:25:00,
2013-07-09 12:31:00,75.9,72.7,29.95,SSE,159,1.0,1.0,90,0.00,,,0.10,WeatherCatV1.15B25,2013-07-09 16:31:00,
2013-07-09 12:36:00,75.8,72.6,29.96,SSE,159,0.0,0.0,90,0.00,,,0.10,WeatherCatV1.15B25,2013-07-09 16:36:00,
2013-07-09 12:41:00,75.9,72.7,29.96,SSE,160,1.0,2.0,90,0.00,,,0.10,WeatherCatV1.15B25,2013-07-09 16:41:00,
2013-07-09 12:46:00,76.8,74.0,29.95,WSW,252,2.0,2.0,91,0.00,,,0.10,WeatherCatV1.15B25,2013-07-09 16:46:00,
2013-07-09 12:51:00,77.9,74.7,29.95,WSW,243,1.0,2.0,90,0.00,,,0.10,WeatherCatV1.15B25,2013-07-09 16:51:00,
2013-07-09 12:56:00,78.4,74.5,29.95,West,279,4.0,7.0,88,0.00,,,0.10,WeatherCatV1.15B25,2013-07-09 16:56:00,
2013-07-09 13:01:00,77.3,73.1,29.95,SW,214,4.0,7.0,87,0.00,,,0.10,WeatherCatV1.15B25,2013-07-09 17:01:00,
2013-07-09 13:06:00,76.2,72.4,29.96,West,259,2.0,6.0,88,0.00,,,0.10,WeatherCatV1.15B25,2013-07-09 17:06:00,
2013-07-09 13:11:00,76.1,72.6,29.96,WSW,241,1.0,4.0,89,0.00,,,0.10,WeatherCatV1.15B25,2013-07-09 17:11:00,
2013-07-09 13:16:00,76.6,73.1,29.95,SW,218,4.0,6.0,89,0.00,,,0.10,WeatherCatV1.15B25,2013-07-09 17:16:00,
2013-07-09 13:21:00,76.8,73.3,29.95,West,260,4.0,4.0,89,0.00,,,0.10,WeatherCatV1.15B25,2013-07-09 17:21:00,
2013-07-09 13:26:00,77.2,73.7,29.95,WSW,254,1.0,3.0,89,0.00,,,0.10,WeatherCatV1.15B25,2013-07-09 17:26:00,
2013-07-09 13:31:00,77.4,73.9,29.95,WSW,248,1.0,5.0,89,0.00,,,0.10,WeatherCatV1.15B25,2013-07-09 17:31:00,
2013-07-09 13:36:00,77.8,73.9,29.95,WSW,248,2.0,5.0,88,0.00,,,0.10,WeatherCatV1.15B25,2013-07-09 17:36:00,
2013-07-09 13:41:00,78.3,74.8,29.95,WNW,287,2.0,3.0,89,0.00,,,0.10,WeatherCatV1.15B25,2013-07-09 17:41:00,
2013-07-09 13:46:00,78.3,74.4,29.95,SW,234,3.0,5.0,88,0.00,,,0.10,WeatherCatV1.15B25,2013-07-09 17:46:00,
2013-07-09 13:51:00,78.4,74.2,29.95,WNW,292,1.0,4.0,87,0.00,,,0.10,WeatherCatV1.15B25,2013-07-09 17:51:00,
2013-07-09 13:56:00,78.2,74.0,29.95,WNW,296,2.0,4.0,87,0.00,,,0.10,WeatherCatV1.15B25,2013-07-09 17:56:00,
2013-07-09 14:01:00,77.4,73.2,29.95,SSW,212,3.0,4.0,87,0.00,,,0.10,WeatherCatV1.15B25,2013-07-09 18:01:00,
2013-07-09 14:06:00,77.5,73.7,29.95,West,267,2.0,4.0,88,0.00,,,0.10,WeatherCatV1.15B25,2013-07-09 18:06:00,
2013-07-09 14:11:00,77.9,73.7,29.95,West,265,2.0,6.0,87,0.00,,,0.10,WeatherCatV1.15B25,2013-07-09 18:11:00,
2013-07-09 14:16:00,77.8,73.6,29.95,WSW,248,2.0,4.0,87,0.00,,,0.10,WeatherCatV1.15B25,2013-07-09 18:16:00,
2013-07-09 14:21:00,78.5,74.3,29.94,WNW,282,3.0,5.0,87,0.00,,,0.10,WeatherCatV1.15B25,2013-07-09 18:21:00,
2013-07-09 14:26:00,78.4,73.9,29.94,SW,229,2.0,5.0,86,0.00,,,0.10,WeatherCatV1.15B25,2013-07-09 18:26:00,
2013-07-09 14:31:00,77.9,73.4,29.95,SW,225,4.0,4.0,86,0.00,,,0.10,WeatherCatV1.15B25,2013-07-09 18:31:00,
2013-07-09 14:36:00,77.4,72.9,29.95,WSW,251,3.0,4.0,86,0.00,,,0.10,WeatherCatV1.15B25,2013-07-09 18:36:00,
2013-07-09 14:41:00,77.7,73.2,29.94,SW,228,2.0,7.0,86,0.00,,,0.10,WeatherCatV1.15B25,2013-07-09 18:41:00,
2013-07-09 14:46:00,77.5,73.0,29.94,WSW,238,2.0,6.0,86,0.00,,,0.10,WeatherCatV1.15B25,2013-07-09 18:46:00,
2013-07-09 14:51:00,77.6,73.4,29.94,WSW,246,4.0,6.0,87,0.00,,,0.10,WeatherCatV1.15B25,2013-07-09 18:51:00,
2013-07-09 14:56:00,78.4,73.9,29.94,West,275,3.0,5.0,86,0.00,,,0.10,WeatherCatV1.15B25,2013-07-09 18:56:00,
2013-07-09 15:01:00,78.8,74.2,29.94,SW,227,3.0,4.0,86,0.00,,,0.10,WeatherCatV1.15B25,2013-07-09 19:01:00,
2013-07-09 15:06:00,78.4,73.5,29.94,WSW,245,3.0,6.0,85,0.00,,,0.10,WeatherCatV1.15B25,2013-07-09 19:06:00,
2013-07-09 15:11:00,78.1,73.2,29.94,SW,230,5.0,10.0,85,0.00,,,0.10,WeatherCatV1.15B25,2013-07-09 19:11:00,
2013-07-09 15:16:00,77.8,72.9,29.94,WSW,248,4.0,6.0,85,0.00,,,0.10,WeatherCatV1.15B25,2013-07-09 19:16:00,
2013-07-09 15:21:00,78.0,73.5,29.94,WSW,251,5.0,6.0,86,0.00,,,0.10,WeatherCatV1.15B25,2013-07-09 19:21:00,
2013-07-09 15:26:00,78.0,73.1,29.94,WSW,241,4.0,6.0,85,0.00,,,0.10,WeatherCatV1.15B25,2013-07-09 19:26:00,
2013-07-09 15:31:00,78.6,73.7,29.93,WSW,257,4.0,5.0,85,0.00,,,0.10,WeatherCatV1.15B25,2013-07-09 19:31:00,
2013-07-09 15:36:00,78.7,73.4,29.93,WNW,289,3.0,4.0,84,0.00,,,0.10,WeatherCatV1.15B25,2013-07-09 19:36:00,
2013-07-09 15:41:00,79.3,74.4,29.93,NW,304,2.0,4.0,85,0.00,,,0.10,WeatherCatV1.15B25,2013-07-09 19:41:00,
2013-07-09 15:46:00,79.7,74.4,29.93,SW,236,4.0,6.0,84,0.00,,,0.10,WeatherCatV1.15B25,2013-07-09 19:46:00,
2013-07-09 15:51:00,79.6,74.0,29.93,SW,216,2.0,5.0,83,0.00,,,0.10,WeatherCatV1.15B25,2013-07-09 19:51:00,
2013-07-09 15:56:00,80.0,74.4,29.92,West,276,2.0,3.0,83,0.00,,,0.10,WeatherCatV1.15B25,2013-07-09 19:56:00,
2013-07-09 16:01:00,80.4,74.4,29.93,West,265,4.0,4.0,82,0.00,,,0.10,WeatherCatV1.15B25,2013-07-09 20:01:00,
2013-07-09 16:06:00,80.8,74.8,29.92,West,259,2.0,5.0,82,0.00,,,0.10,WeatherCatV1.15B25,2013-07-09 20:06:00,
2013-07-09 16:11:00,80.7,74.3,29.92,SW,223,3.0,4.0,81,0.00,,,0.10,WeatherCatV1.15B25,2013-07-09 20:11:00,
2013-07-09 16:16:00,80.8,74.0,29.92,WNW,292,2.0,8.0,80,0.00,,,0.10,WeatherCatV1.15B25,2013-07-09 20:16:00,
2013-07-09 16:21:00,80.5,73.7,29.92,SW,215,2.0,5.0,80,0.00,,,0.10,WeatherCatV1.15B25,2013-07-09 20:21:00,
2013-07-09 16:26:00,80.8,74.0,29.91,SW,219,4.0,5.0,80,0.00,,,0.10,WeatherCatV1.15B25,2013-07-09 20:26:00,
2013-07-09 16:31:00,80.9,74.1,29.91,SW,216,4.0,4.0,80,0.00,,,0.10,WeatherCatV1.15B25,2013-07-09 20:31:00,
2013-07-09 16:36:00,80.8,74.0,29.91,SW,230,3.0,7.0,80,0.00,,,0.10,WeatherCatV1.15B25,2013-07-09 20:36:00,
2013-07-09 16:41:00,81.0,73.9,29.91,SW,222,2.0,3.0,79,0.00,,,0.10,WeatherCatV1.15B25,2013-07-09 20:41:00,
2013-07-09 16:46:00,81.5,74.7,29.91,West,267,2.0,3.0,80,0.00,,,0.10,WeatherCatV1.15B25,2013-07-09 20:46:00,
2013-07-09 16:51:00,82.0,74.8,29.90,WSW,251,3.0,5.0,79,0.00,,,0.10,WeatherCatV1.15B25,2013-07-09 20:51:00,
2013-07-09 16:56:00,81.9,74.3,29.90,WNW,294,2.0,4.0,78,0.00,,,0.10,WeatherCatV1.15B25,2013-07-09 20:56:00,
2013-07-09 17:01:00,81.5,73.6,29.90,WSW,245,2.0,3.0,77,0.00,,,0.10,WeatherCatV1.15B25,2013-07-09 21:01:00,
2013-07-09 17:06:00,81.6,73.7,29.90,West,275,2.0,3.0,77,0.00,,,0.10,WeatherCatV1.15B25,2013-07-09 21:06:00,
2013-07-09 17:11:00,81.4,73.5,29.90,SW,225,1.0,5.0,77,0.00,,,0.10,WeatherCatV1.15B25,2013-07-09 21:11:00,
2013-07-09 17:16:00,81.5,74.0,29.90,West,260,3.0,5.0,78,0.00,,,0.10,WeatherCatV1.15B25,2013-07-09 21:16:00,
2013-07-09 17:21:00,81.3,73.4,29.90,WSW,257,6.0,7.0,77,0.00,,,0.10,WeatherCatV1.15B25,2013-07-09 21:21:00,
2013-07-09 17:26:00,81.2,73.7,29.90,WNW,283,2.0,7.0,78,0.00,,,0.10,WeatherCatV1.15B25,2013-07-09 21:26:00,
2013-07-09 17:32:00,81.0,73.1,29.90,SW,233,1.0,3.0,77,0.00,,,0.10,WeatherCatV1.15B25,2013-07-09 21:32:00,
2013-07-09 17:37:00,81.3,73.8,29.89,West,259,0.0,2.0,78,0.00,,,0.10,WeatherCatV1.15B25,2013-07-09 21:37:00,
2013-07-09 17:42:00,81.8,73.9,29.89,WSW,257,3.0,5.0,77,0.00,,,0.10,WeatherCatV1.15B25,2013-07-09 21:42:00,
2013-07-09 17:47:00,82.1,74.2,29.89,SW,229,3.0,3.0,77,0.00,,,0.10,WeatherCatV1.15B25,2013-07-09 21:47:00,
2013-07-09 17:52:00,82.1,74.2,29.89,SW,221,2.0,2.0,77,0.00,,,0.10,WeatherCatV1.15B25,2013-07-09 21:52:00,
2013-07-09 17:57:00,82.0,72.9,29.89,West,267,2.0,5.0,74,0.00,,,0.10,WeatherCatV1.15B25,2013-07-09 21:57:00,
2013-07-09 18:02:00,81.8,72.3,29.89,WSW,258,2.0,7.0,73,0.00,,,0.10,WeatherCatV1.15B25,2013-07-09 22:02:00,
2013-07-09 18:07:00,82.2,73.5,29.89,West,278,1.0,4.0,75,0.00,,,0.10,WeatherCatV1.15B25,2013-07-09 22:07:00,
2013-07-09 18:12:00,82.5,72.9,29.89,SSW,205,1.0,4.0,73,0.00,,,0.10,WeatherCatV1.15B25,2013-07-09 22:12:00,
2013-07-09 18:17:00,82.3,72.3,29.89,SW,233,2.0,3.0,72,0.00,,,0.10,WeatherCatV1.15B25,2013-07-09 22:17:00,
2013-07-09 18:22:00,82.2,71.8,29.89,West,263,2.0,4.0,71,0.00,,,0.10,WeatherCatV1.15B25,2013-07-09 22:22:00,
2013-07-09 18:27:00,82.0,72.1,29.89,West,267,4.0,5.0,72,0.00,,,0.10,WeatherCatV1.15B25,2013-07-09 22:27:00,
2013-07-09 18:32:00,81.9,72.4,29.89,WSW,237,1.0,2.0,73,0.00,,,0.10,WeatherCatV1.15B25,2013-07-09 22:32:00,
2013-07-09 18:37:00,82.2,73.1,29.89,SW,234,1.0,2.0,74,0.00,,,0.10,WeatherCatV1.15B25,2013-07-09 22:37:00,
2013-07-09 18:42:00,82.3,72.8,29.89,West,265,1.0,4.0,73,0.00,,,0.10,WeatherCatV1.15B25,2013-07-09 22:42:00,
2013-07-09 18:44:00,82.3,72.8,29.89,West,265,1.0,2.0,73,0.00,,,0.10,WeatherCatV1.15B25,2013-07-09 22:44:00,
2013-07-09 18:49:00,82.5,73.4,29.89,West,269,1.0,2.0,74,0.00,,,0.10,WeatherCatV1.15B25,2013-07-09 22:49:00,
2013-07-09 18:54:00,82.0,72.5,29.88,WSW,248,2.0,2.0,73,0.00,,,0.10,WeatherCatV1.15B25,2013-07-09 22:54:00,
2013-07-09 18:59:00,81.6,72.9,29.89,SW,231,2.0,2.0,75,0.00,,,0.10,WeatherCatV1.15B25,2013-07-09 22:59:00,
2013-07-09 19:04:00,81.2,72.9,29.89,West,271,1.0,2.0,76,0.00,,,0.10,WeatherCatV1.15B25,2013-07-09 23:04:00,
2013-07-09 19:09:00,81.0,72.7,29.89,West,281,2.0,3.0,76,0.00,,,0.10,WeatherCatV1.15B25,2013-07-09 23:09:00,
2013-07-09 19:14:00,81.0,73.1,29.88,WSW,248,0.0,0.0,77,0.00,,,0.10,WeatherCatV1.15B25,2013-07-09 23:14:00,
2013-07-09 19:19:00,81.1,72.8,29.88,WSW,248,1.0,2.0,76,0.00,,,0.10,WeatherCatV1.15B25,2013-07-09 23:19:00,
2013-07-09 19:24:00,81.0,72.7,29.88,WSW,248,0.0,0.0,76,0.00,,,0.10,WeatherCatV1.15B25,2013-07-09 23:24:00,
2013-07-09 19:29:00,80.8,72.9,29.88,WSW,248,0.0,1.0,77,0.00,,,0.10,WeatherCatV1.15B25,2013-07-09 23:29:00,
2013-07-09 19:34:00,80.5,73.0,29.88,WSW,248,0.0,1.0,78,0.00,,,0.10,WeatherCatV1.15B25,2013-07-09 23:34:00,
2013-07-09 19:39:00,80.2,73.1,29.88,WSW,248,0.0,0.0,79,0.00,,,0.10,WeatherCatV1.15B25,2013-07-09 23:39:00,
2013-07-09 19:44:00,80.1,73.0,29.88,WSW,248,0.0,0.0,79,0.00,,,0.10,WeatherCatV1.15B25,2013-07-09 23:44:00,
2013-07-09 19:50:00,79.9,73.2,29.88,North,5,0.0,0.0,80,0.00,,,0.10,WeatherCatV1.15B25,2013-07-09 23:50:00,
2013-07-09 19:55:00,79.8,73.1,29.88,North,0,0.0,0.0,80,0.00,,,0.10,WeatherCatV1.15B25,2013-07-09 23:55:00,
2013-07-09 20:00:00,79.8,73.1,29.87,North,0,0.0,0.0,80,0.00,,,0.10,WeatherCatV1.15B25,2013-07-10 00:00:00,
2013-07-09 20:05:00,79.6,72.9,29.87,NNW,337,0.0,0.0,80,0.00,,,0.10,WeatherCatV1.15B25,2013-07-10 00:05:00,
2013-07-09 20:10:00,79.6,73.2,29.87,NNW,337,0.0,0.0,81,0.00,,,0.10,WeatherCatV1.15B25,2013-07-10 00:10:00,
2013-07-09 20:15:00,79.3,72.9,29.87,NNW,337,0.0,0.0,81,0.00,,,0.10,WeatherCatV1.15B25,2013-07-10 00:15:00,
2013-07-09 20:20:00,79.0,72.7,29.87,NNW,337,0.0,0.0,81,0.00,,,0.10,WeatherCatV1.15B25,2013-07-10 00:20:00,
2013-07-09 20:25:00,78.8,72.8,29.87,NNW,337,0.0,0.0,82,0.00,,,0.10,WeatherCatV1.15B25,2013-07-10 00:25:00,
2013-07-09 20:30:00,78.6,73.0,29.87,NNW,337,0.0,0.0,83,0.00,,,0.10,WeatherCatV1.15B25,2013-07-10 00:30:00,
2013-07-09 20:35:00,78.4,72.8,29.87,NNW,337,0.0,0.0,83,0.00,,,0.10,WeatherCatV1.15B25,2013-07-10 00:35:00,
2013-07-09 20:40:00,78.3,72.7,29.87,NNW,337,0.0,0.0,83,0.00,,,0.10,WeatherCatV1.15B25,2013-07-10 00:40:00,
2013-07-09 20:45:00,78.1,72.9,29.88,NNW,337,0.0,0.0,84,0.00,,,0.10,WeatherCatV1.15B25,2013-07-10 00:45:00,
2013-07-09 20:50:00,78.0,72.8,29.88,NNW,337,0.0,0.0,84,0.00,,,0.10,WeatherCatV1.15B25,2013-07-10 00:50:00,
2013-07-09 20:55:00,77.8,72.6,29.88,NNW,337,0.0,0.0,84,0.00,,,0.10,WeatherCatV1.15B25,2013-07-10 00:55:00,
2013-07-09 21:00:00,77.6,72.7,29.88,NNW,337,0.0,0.0,85,0.00,,,0.10,WeatherCatV1.15B25,2013-07-10 01:00:00,
2013-07-09 21:05:00,77.7,72.8,29.88,NNW,337,0.0,0.0,85,0.00,,,0.10,WeatherCatV1.15B25,2013-07-10 01:05:00,
2013-07-09 21:10:00,77.7,72.8,29.88,NNW,337,0.0,0.0,85,0.00,,,0.10,WeatherCatV1.15B25,2013-07-10 01:10:00,
2013-07-09 21:15:00,77.7,73.2,29.88,NNW,337,0.0,0.0,86,0.00,,,0.10,WeatherCatV1.15B25,2013-07-10 01:15:00,
2013-07-09 21:20:00,77.7,72.8,29.88,NNW,337,0.0,0.0,85,0.00,,,0.10,WeatherCatV1.15B25,2013-07-10 01:20:00,
2013-07-09 21:25:00,77.6,73.1,29.88,NNW,337,0.0,0.0,86,0.00,,,0.10,WeatherCatV1.15B25,2013-07-10 01:25:00,
2013-07-09 21:30:00,77.6,73.1,29.88,NNW,337,0.0,0.0,86,0.00,,,0.10,WeatherCatV1.15B25,2013-07-10 01:30:00,
2013-07-09 21:35:00,77.4,72.9,29.88,NNW,337,0.0,0.0,86,0.00,,,0.10,WeatherCatV1.15B25,2013-07-10 01:35:00,
2013-07-09 21:40:00,77.3,72.8,29.89,NNW,337,0.0,0.0,86,0.00,,,0.10,WeatherCatV1.15B25,2013-07-10 01:40:00,
2013-07-09 21:45:00,77.2,72.7,29.89,NNW,337,0.0,0.0,86,0.00,,,0.10,WeatherCatV1.15B25,2013-07-10 01:45:00,
2013-07-09 21:50:00,77.1,72.6,29.90,NNW,337,0.0,0.0,86,0.00,,,0.10,WeatherCatV1.15B25,2013-07-10 01:50:00,
2013-07-09 21:55:00,76.8,72.3,29.90,NNW,337,0.0,0.0,86,0.00,,,0.10,WeatherCatV1.15B25,2013-07-10 01:55:00,
2013-07-09 22:00:00,76.7,72.5,29.90,NNW,337,0.0,0.0,87,0.00,,,0.10,WeatherCatV1.15B25,2013-07-10 02:00:00,
2013-07-09 22:05:00,76.5,72.3,29.90,NNW,337,0.0,0.0,87,0.00,,,0.10,WeatherCatV1.15B25,2013-07-10 02:05:00,
2013-07-09 22:10:00,76.6,72.4,29.90,West,279,0.0,3.0,87,0.00,,,0.10,WeatherCatV1.15B25,2013-07-10 02:10:00,
2013-07-09 22:15:00,76.6,72.1,29.89,SW,234,2.0,3.0,86,0.00,,,0.10,WeatherCatV1.15B25,2013-07-10 02:15:00,
2013-07-09 22:20:00,76.8,71.9,29.89,SW,236,0.0,1.0,85,0.00,,,0.10,WeatherCatV1.15B25,2013-07-10 02:20:00,
2013-07-09 22:25:00,76.8,71.6,29.89,SW,236,0.0,0.0,84,0.00,,,0.10,WeatherCatV1.15B25,2013-07-10 02:25:00,
2013-07-09 22:30:00,76.8,71.9,29.89,SW,236,0.0,0.0,85,0.00,,,0.10,WeatherCatV1.15B25,2013-07-10 02:30:00,
2013-07-09 22:35:00,76.7,71.5,29.89,SW,236,0.0,0.0,84,0.00,,,0.10,WeatherCatV1.15B25,2013-07-10 02:35:00,
2013-07-09 22:40:00,76.5,71.6,29.89,SW,236,0.0,0.0,85,0.00,,,0.10,WeatherCatV1.15B25,2013-07-10 02:40:00,
2013-07-09 22:45:00,76.4,71.5,29.89,SW,236,0.0,0.0,85,0.00,,,0.10,WeatherCatV1.15B25,2013-07-10 02:45:00,
2013-07-09 22:50:00,76.2,71.3,29.89,SW,236,0.0,0.0,85,0.00,,,0.10,WeatherCatV1.15B25,2013-07-10 02:50:00,
2013-07-09 22:55:00,76.2,71.3,29.89,SW,236,0.0,0.0,85,0.00,,,0.10,WeatherCatV1.15B25,2013-07-10 02:55:00,
2013-07-09 23:00:00,76.2,71.7,29.89,SW,236,0.0,0.0,86,0.00,,,0.10,WeatherCatV1.15B25,2013-07-10 03:00:00,
2013-07-09 23:05:00,76.0,71.2,29.89,SW,236,0.0,0.0,85,0.00,,,0.10,WeatherCatV1.15B25,2013-07-10 03:05:00,
2013-07-09 23:10:00,75.9,71.1,29.89,SW,236,0.0,0.0,85,0.00,,,0.10,WeatherCatV1.15B25,2013-07-10 03:10:00,
2013-07-09 23:15:00,75.8,71.0,29.89,SW,236,0.0,0.0,85,0.00,,,0.10,WeatherCatV1.15B25,2013-07-10 03:15:00,
2013-07-09 23:20:00,75.7,70.9,29.88,SW,236,0.0,0.0,85,0.00,,,0.10,WeatherCatV1.15B25,2013-07-10 03:20:00,
2013-07-09 23:25:00,75.7,70.9,29.89,SW,236,0.0,0.0,85,0.00,,,0.10,WeatherCatV1.15B25,2013-07-10 03:25:00,
2013-07-09 23:30:00,75.5,70.7,29.89,SW,236,0.0,0.0,85,0.00,,,0.10,WeatherCatV1.15B25,2013-07-10 03:30:00,
2013-07-09 23:35:00,75.4,70.6,29.89,SW,236,0.0,0.0,85,0.00,,,0.10,WeatherCatV1.15B25,2013-07-10 03:35:00,
2013-07-09 23:40:00,75.4,70.2,29.89,SW,236,0.0,0.0,84,0.00,,,0.10,WeatherCatV1.15B25,2013-07-10 03:40:00,
2013-07-09 23:45:00,75.4,70.6,29.89,SW,236,0.0,0.0,85,0.00,,,0.10,WeatherCatV1.15B25,2013-07-10 03:45:00,
2013-07-09 23:50:00,75.4,70.6,29.89,SW,236,0.0,0.0,85,0.00,,,0.10,WeatherCatV1.15B25,2013-07-10 03:50:00,
2013-07-09 23:55:00,75.3,70.5,29.89,SW,236,1.0,2.0,85,0.00,,,0.10,WeatherCatV1.15B25,2013-07-10 03:55:00,